Regional Weather Roundup
Issued by NWS State College, PA

Home | Current Version | Previous Version | Text Only | Print | Product List | Glossary On
Versions: 1 2 3 4 5 6 7 8 9 10 11 12 13 14 15 16 17 18 19 20 21 22 23 24 25 26 27 28 29 30 31 32 33 34 35 36 37 38 39 40 41 42 43 44 45 46 47 48 49 50
000
ASUS41 KCTP 010303
RWRCTP

REGIONAL WEATHER ROUNDUP
NATIONAL WEATHER SERVICE STATE COLLEGE PA
1100 PM EDT TUE MAY 31 2016

Note: "fair" indicates few or no clouds below 12,000 feet with no
significant weather and/or obstructions to visibility.

* = STATION THAT DOES NOT REPORT PRECIPITATION /E.G. RAIN...SNOW...ETC/
    THUNDER OR FOG.

PAZ002>004-007>009-013>016-020>023-029>032-010400-
WESTERN PENNSYLVANIA

CITY           SKY/WX    TMP DP  RH WIND       PRES   REMARKS
ERIE           PTCLDY    63  54  72 S3        30.03F
MEADVILLE      PTCLDY    63  32  31 NE5       30.06S
FRANKLIN*      PTCLDY    61  48  63 N3        30.08S
NEW CASTLE     FAIR      65  52  62 CALM      30.05S
BEAVER COUNTY  NOT AVBL
BUTLER*        CLEAR     66  52  59 NE7       30.07S
PITTSBURGH INT MOCLDY    74  54  49 NE6       30.03R
PITTSBURGH     PTCLDY    72  56  57 VRB5      30.03R
INDIANA*       CLEAR     68  57  68 CALM      30.08R
LATROBE        PTCLDY    66  64  94 CALM      30.03R
WASHINGTON CO* PTCLDY    72  57  60 NE6       30.03S
$$

PAZ004>006-010>012-017>019-024>028-033>037-041-042-045-046-049>053-010400-
CENTRAL PENNSYLVANIA

CITY           SKY/WX    TMP DP  RH WIND       PRES   REMARKS
BRADFORD       PTCLDY    54  48  80 CALM      30.09R
DUBOIS         CLOUDY    65  48  54 N7        30.06S
CLEARFIELD     CLOUDY    68  51  54 NE5       30.06R
JOHNSTOWN      CLEAR     71  48  43 E3        30.07S
ALTOONA        CLEAR     66  54  65 CALM      30.04S
STATE COLLEGE  CLOUDY    70  55  57 NE7       30.04S
WILLIAMSPORT   CLOUDY    70  58  65 CALM      30.00R
SELINSGROVE    CLOUDY    70  63  78 NW5       30.00R
FT INDIANTOWN  CLOUDY    67  62  85 NE1       29.99S
CAPITAL CITY   PTCLDY    70  59  68 SW5       29.99R
HARRISBURG     MOCLDY    72  61  68 CALM      29.98R
YORK           CLOUDY    65  61  87 CALM      30.00R
$$

PAZ038>040-043-044-047-048-054-055-060>062-067>071-010400-
EASTERN PENNSYLVANIA

CITY           SKY/WX    TMP DP  RH WIND       PRES   REMARKS
SCRANTON       CLEAR     68  57  68 E6        30.02R
MOUNT POCONO   NOT AVBL
ALLENTOWN      CLEAR     70  59  68 CALM      29.98R
QUAKERTOWN*    CLEAR     64  59  82 CALM      30.00S
READING        CLEAR     72  59  63 CALM      29.97S
LANCASTER      CLOUDY    74  59  59 CALM      29.98S
COATESVILLE    CLEAR     70  57  64 CALM      30.01F
POTTSTOWN      CLEAR     67  60  78 CALM      30.00R
BLUE BELL      CLEAR     63  61  94 CALM      29.98S
DOYLESTOWN     CLEAR     67  58  72 CALM      29.98R
WILLOW GROVE   NOT AVBL
NORTH PHILA    CLEAR     76  68  76 SW3       30.00R
PHILADELPHIA   MOCLDY    74  65  73 S7        29.99R
$$




USA.gov is the U.S. government's official web portal to all federal, state and local government web resources and services.